www.pogodaiklimat.ru

Погода и климат >> Архив погоды >> Индия >> Jorhat


ПОГОДА в Jorhat

  • Прогноз погоды в Jorhat
  • Монитор погоды в Jorhat
  • Климат города

АРХИВ ПОГОДЫ в Jorhat

Время (UTC), дата Ветер
(напр.,м/с)
 
Видим.   Явления Облачность Т
(С)
Тd
(С)
f
(%)
Тe
(С)
Тes
(С)
Комфортность P
(гПа)
Po
(гПа)
Тmin
(С)
Tmax
(С)
R
(мм)
R24
(мм)
S
(см)
06 13.01 СЗ 1 2000 м мгла ясно +22.0 +16.8 72 +26 +38 душно 1013.5 1014.0
09 13.01 З 1 4000 м ясно +24.4 +16.6 62 +28 +32 душно 1009.7 1010.0
12 13.01 штиль 0 2000 м мгла 1/0
[Ci fib]
+18.8 +15.8 83 +20 +20 1011.9 1012.0 +24.7
03 14.01 штиль 0 2000 м мгла 9/5 600 м
[Sc diur, vesp Ac trans]
+15.6 +15.6 100 +15 +17 1016.1 1016.0 +10.6
06 14.01 Ю 1 2000 м мгла ясно +21.2 +16.6 75 +25 +36 комфорт 1015.2 1015.0
09 14.01 В 1 4000 м ясно +23.6 +16.4 64 +27 +31 жарко 1011.0 1011.0
12 14.01 штиль 0 2000 м мгла 1/0
[Ac trans]
+19.2 +15.5 79 +21 +21 комфорт 1013.5 1014.0 +24.3
03 15.01 З 1 2000 м мгла {туман} ясно +15.8 +14.8 94 +16 +22 1015.0 1015.0 +11.6
06 15.01 штиль 0 50 км мгла ?/? +20.4 +16.4 78 +23 +23 комфорт 1013.7 1014.0
09 15.01 СВ 1 2000 м мгла 4/4 600 м
[Sc diur, vesp]
+23.2 +17.4 70 +29 +31 душно 1009.1 1009.0
12 15.01 штиль 0 2000 м мгла ясно +18.8 +17.2 90 +20 +20 1009.8 1010.0 +24.1
03 16.01 Ю 1 1000 м дымка {туман} ясно +17.0 +15.6 91 +18 +24 1014.9 1015.0 +11.3
06 16.01 С 1 2000 м мгла ясно +22.0 +17.1 74 +26 +38 душно 1013.8 1014.0
09 16.01 В 1 4000 м 3/3 600 м
[Sc diur, vesp]
+24.0 +18.7 72 +29 +31 душно 1009.5 1010.0
12 16.01 штиль 0 2000 м мгла 4/3 600 м
[Sc diur, vesp Ac trans]
+20.0 +18.4 91 +23 +23 комфорт 1009.7 1010.0 +24.4
03 17.01 Ю 1 1000 м дымка {туман} ясно +15.6 +14.9 96 +16 +22 1014.6 1015.0 +11.2
06 17.01 СЗ 1 4000 м ясно +22.2 +17.4 74 +27 +39 душно 1013.1 1013.0
09 17.01 С 1 4000 м 3/3 600 м
[Sc diur, vesp]
+25.2 +17.9 64 +30 +32 душно 1009.7 1010.0
12 17.01 штиль 0 2000 м мгла 3/0
[Ac trans]
+20.4 +18.8 91 +24 +24 комфорт 1009.5 1010.0 +25.6
03 18.01 Ю 1 1000 м дымка {туман} ясно +17.0 +15.6 91 +18 +24 1014.3 1014.0 +11.3
06 18.01 штиль 0 4000 м ясно +24.2 +18.2 69 +29 +42 душно 1012.8 1013.0
09 18.01 СЗ 1 4000 м 3/3 600 м
[Sc diur, vesp]
+26.0 +17.8 61 +30 +33 душно 1010.2 1010.0
12 18.01 0 2000 м мгла н/о +19.6 +18.0 90 1011.1 1011.0 +26.4
03 19.01 Ю 1 2000 м мгла {туман} ясно +18.6 +16.6 88 +21 +27 комфорт 1015.3 1015.0 +12.4
06 19.01 штиль 0 2000 м мгла 8/5 600 м
[Sc diur, vesp Ac trans]
+22.2 +18.0 77 +27 +32 душно 1013.1 1013.0
09 19.01 В 1 4000 м 1/1 600 м
[Cu hum]
+24.8 +17.8 65 +29 +33 душно 1011.1 1011.0
12 19.01 штиль 0 2000 м мгла 5/3 600 м
[Sc Ac trans]
+22.2 +18.7 81 +28 +28 душно 1011.4 1011.0 +25.5

 

Местоположение метеостанции Jorhat (Assam, Индия): широта 26.75 долгота 94.20 высота над уровнем моря 87 м.

В архиве по умолчанию представлена погода в Jorhat за последнюю неделю. Архивные данные за месяц целиком и за предыдущие месяцы, начиная с января 2011 года, Вы можете получить, выбрав интересующий диапазон дат из раскрывающегося списка и нажав кнопку "Ввод!".

Внимание! Время в таблицах - всемирное. Для получения местного времени необходимо прибавить поправку, которая в Jorhat равна 5.5 ч.

Смотрите также архив погоды в соседних городах и на ближайших метеорологических станциях:

Погода в Golaghat (Assam, Индия) (34 км)
Погода в North Lakhimpur (Assam, Индия) (54 км)
Погода в Itanagar (Arunachal Pradesh, Индия) (69 км)
Погода в Dibrugarh (Assam, Индия) (115 км)
Погода в Kohima (Nagaland, Индия) (125 км)
Погода в Tezpur (Assam, Индия) (142 км)
Погода в Lumding (Assam, Индия) (151 км)
Погода в Hkamti (Мьянма) (171 км)
Погода в Chaparmukh (Assam, Индия) (178 км)
Погода в Mazbat (Assam, Индия) (184 км)

Пояснения к столбцам:

Ветер - указаны скорость ветра в м/с - средняя за 10 мин, порывы в срок и между сроками (в фигурных скобках) и направление, откуда дует ветер: С - северный, СВ - северо-восточный, В - восточный, ЮВ - юго-восточный, Ю - южный, ЮЗ - юго-западный, З - западный, СЗ - северо-западный.
Видимость - горизонтальная дальность видимости в метрах или километрах. При видимости от 1 до 10 км при отсутствии осадков обычно наблюдается дымка, при ухудшении видимости до 1 км и менее - туман. В сухую погоду видимость может ухудшаться дымом, пылью или мглою.
Явления - указаны атмосферные явления, наблюдавшиеся в срок или в последний час перед сроком; фигурными скобками обозначены явления, наблюдавшиеся между сроками (за 1-3 часа до срока); квадратными скобками обозначены град или гололедные отложения с указанием их диаметра в мм.
Облачность - указаны через наклонную черту общая и нижняя облачность в баллах и высота нижней границы облаков в метрах; квадратными скобками обозначены формы облаков: Ci - перистые, Cs - перисто-слоистые, Cc - перисто-кучевые, Ac - высококучевые, As - высокослоистые, Sc - слоисто-кучевые, Ns - слоисто-дождевые, Cu - кучевые, Cb - кучево-дождевые. Подробнее классификацию облаков см. в Атласе облаков (PDF).
T - Температура воздуха - температура, измеренная на высоте 2 м над землей.
Td - Температура точки росы - температура, при понижении до которой содержащийся в воздухе водяной пар достигнет насыщения.
f - Относительная влажность воздуха - влажноcть воздуха, измеренная на высоте 2 м над землей.
Te - Эффективная температура - температура, которую ощущает одетый по сезону человек в тени. Характеристика душности погоды. При расчете учитывается влияние влажности воздуха и скорости ветра на теплоощущения человека.
Tes - Эффективная температура на солнце - температура, которую ощущает человек, с поправкой на солнечный нагрев. Характеристика знойности погоды. Зависит от высоты солнца над горизонтом, облачности и скорости ветра. Ночью, в пасмурную погоду, а также при ветре 12 м/с и более поправка равна нулю.
P - Атмосферное давление - приведенное к уровню моря атмосферное давление.
Po - Атмосферное давление - измеренное на уровне метеостанции атмосферное давление.
Tmin - Минимальная температура - минимум температуры воздуха на высоте 2 м над землей.
Tmax - Максимальная температура - максимум температуры воздуха на высоте 2 м над землей.
R - Количество осадков - Количество выпавших осадков за период времени, мм. При наведении курсора мыши на число - период времени, за который выпало указанное количество осадков.
R24 - Количество осадков - Количество выпавших осадков за 24 часа, мм.
S - Снежный покров - Высота снежного покрова, см. При наведении курсора мыши на число - состояние снежного покрова и степень покрытия местности в баллах.